Aurora, WI

6:09 AM CDT on October 02, 2014 (GMT -0500)
N Gilman Dr | Change Station
CLOSE
Current Station
Personal Weather Station
Location: Gilman, WI
Elevation: 1237 ft
Nearby Weather Stations

Elev 1237 ft 45.17 °N, 90.82 °W | Updated 3 minutes ago

Overcast
Overcast
51.6 °F
Feels Like 51.6 °F
N
0.0
Wind Variable Wind from North
Gusts 0.0 mph

Today
High -- | Low -- °F
--% Chance of Precip.
Yesterday
High -- | Low -- °F
Precip. -- in
7:02 AM 6:41 PM
First Quarter, 57% visible
Pressure 29.86 in
Visibility 3.0 miles
Clouds Mostly Cloudy 1100 ft
Mostly Cloudy 1400 ft
Overcast 2000 ft
Dew Point 49 °F
Humidity 91%
Rainfall 0.00 in
Snow Depth Not available.
UV 0 out of 12
Pollen .40 out of 12
Air Quality Not available.
Flu Activity Not available.
METAR KRCX 021055Z AUTO 00000KT 3SM BR BKN011 BKN014 OVC020 12/12 A2986 RMK AO2 T01220117

More Conditions Fewer Conditions

Pressure 29.86 in
Visibility 3.0 miles
Clouds Mostly Cloudy 1100 ft
Mostly Cloudy 1400 ft
Overcast 2000 ft
Dew Point 49 °F
Humidity 91%
Rainfall 0.00 in
Snow Depth Not available.
UV 0 out of 12
Pollen .40 out of 12
Air Quality Not available.
Flu Activity Not available.
METAR KRCX 021055Z AUTO 00000KT 3SM BR BKN011 BKN014 OVC020 12/12 A2986 RMK AO2 T01220117

More Conditions Fewer Conditions

10-Day Weather Forecast

Almanac

Astronomy

Oct. 02, 2014 Rise Set
Actual Time 7:02 AM CDT 6:41 PM CDT
Civil Twilight 6:33 AM CDT 7:11 PM CDT
Nautical Twilight 5:59 AM CDT 7:45 PM CDT
Astronomical Twilight 5:24 AM CDT 8:19 PM CDT
Moon 3:02 PM CDT 12:04 AM CDT
Length of Visible Light 12h 37m
Length of Day
11h 39m
Tomorrow will be 3m 7s shorter.
First Quarter, 57% of the Moon is Illuminated
Today
First Quarter
Oct 8
Full
Oct 15
Last Quarter
Oct 23
New
Oct 30
First Quarter

Today's Extremes

State Highs State Lows

Community

WunderPhotos

Upload Photos

1,758,215 photos uploaded!

WunderBlogs® & News

Nearby

Snow Depth

Station Depth Elevation
No new snow has been reported.

Earthquake Activity

City Distance Mag. Time & Date
No recent earthquake activity has been reported nearby.
Minimum magnitude displayed is 2.5.

Coastal Water Temperatures

Place Temperature
No Stations Reporting

Nearby Weather Stations